Weather History for Whiting Fld NAS, FL

Change the Weather History Date:

Monday, February 25, 2013

  Actual Average Record
Temperature  
Mean Temperature 62 °F -  
Max Temperature 66 °F 64 °F 82 °F (2011)
Min Temperature 57 °F 46 °F 34 °F (1999)
Degree Days  
Heating Degree Days 4    
Growing Degree Days 12 (Base 50)    
Moisture  
Dew Point 58 °F    
Average Humidity 89    
Maximum Humidity 100    
Minimum Humidity 73    
Precipitation  
Precipitation 1.73 in - - ()
Sea Level Pressure  
Sea Level Pressure 29.72 in    
Wind  
Wind Speed 10 mph (East)    
Max Wind Speed 20 mph    
Max Gust Speed 26 mph    
Visibility 6 miles    
Events Rain , Thunderstorm    
Averages and records for this station are not official NWS values.
T = Trace of Precipitation, MM = Missing Value Source: NWS Daily Summary

Daily Weather History Graph

Daily Weather History Graph

Search for Another Location

Airport:

Trip Planner

Search our weather history database for the weather conditions in past years. The results will help you decide how hot, cold, wet, or windy it might be!

Date:

Astronomy

Feb. 25, 2013 Rise Set
Actual Time 6:18 AM CST 5:43 PM CST
Civil Twilight 5:54 AM CST 6:08 PM CST
Nautical Twilight 5:26 AM CST 6:36 PM CST
Astronomical Twilight 4:58 AM CST 7:04 PM CST
Moon 5:52 PM CST (2/25) 5:51 AM CST (2/25)
Length of Visible Light 12h 14m
Length of Day
11h 25m
Full, 100% of the Moon is Illuminated
Feb 25
Full
Feb 25
Full
Mar 4
Last Quarter
Mar 11
New
Mar 19
First Quarter

Hourly Weather History & Observations

Time (CST) Temp. Dew Point Humidity Pressure Visibility Wind Dir Wind Speed Gust Speed Precip Events Conditions
12:56 AM 57.0 °F 55.0 °F 93% 29.83 in 7.0 mi ENE 4.6 mph - 0.11 in Rain , Thunderstorm Light Thunderstorms and Rain
1:12 AM 57.2 °F 55.4 °F 94% 29.86 in 5.0 mi NE 5.8 mph - 0.01 in Rain , Thunderstorm Thunderstorms and Rain
1:20 AM 57.2 °F 55.4 °F 94% 29.83 in 4.0 mi ENE 9.2 mph - 0.01 in Rain Light Rain
1:32 AM 57.2 °F 55.4 °F 94% 29.84 in 7.0 mi NE 4.6 mph - 0.02 in Rain Light Rain
1:51 AM 57.2 °F 55.4 °F 94% 29.82 in 8.0 mi East 9.2 mph - 0.02 in   Overcast
1:56 AM 57.0 °F 55.0 °F 93% 29.77 in 8.0 mi ENE 8.1 mph - 0.02 in   Overcast
2:12 AM 57.2 °F 55.4 °F 94% 29.81 in 8.0 mi ENE 6.9 mph - N/A   Overcast
2:45 AM 57.2 °F 55.4 °F 94% 29.78 in 6.0 mi East 10.4 mph - 0.00 in Rain , Thunderstorm Light Thunderstorms and Rain
2:56 AM 57.9 °F 55.9 °F 93% 29.74 in 6.0 mi ENE 6.9 mph - 0.01 in Rain , Thunderstorm Thunderstorms and Rain
3:56 AM 59.0 °F 55.9 °F 90% 29.78 in 4.0 mi SE 8.1 mph - 0.15 in Rain , Thunderstorm Thunderstorms and Rain
4:05 AM 57.2 °F 57.2 °F 100% 29.82 in 4.0 mi ESE 6.9 mph - 0.02 in Rain , Thunderstorm Thunderstorms and Rain
4:56 AM 57.9 °F 57.0 °F 97% 29.73 in 2.0 mi NE 6.9 mph - 0.24 in Rain , Thunderstorm Heavy Thunderstorms and Rain
5:08 AM 57.2 °F 55.4 °F 94% 29.78 in 3.0 mi East 10.4 mph - 0.03 in Rain , Thunderstorm Thunderstorms and Rain
5:35 AM 59.0 °F 57.2 °F 94% 29.78 in 4.0 mi Variable 6.9 mph - 0.09 in Rain , Thunderstorm Light Thunderstorms and Rain
5:56 AM 57.9 °F 55.9 °F 93% 29.78 in 2.5 mi NW 11.5 mph - 0.20 in Rain , Thunderstorm Thunderstorms and Rain
6:17 AM 57.2 °F 57.2 °F 100% 29.84 in 2.0 mi Variable 5.8 mph - 0.28 in Rain , Thunderstorm Thunderstorms and Rain
6:54 AM 57.2 °F 57.2 °F 100% 29.83 in 2.5 mi NE 4.6 mph - 0.47 in Rain Rain
6:56 AM 57.9 °F 57.0 °F 97% 29.79 in 2.5 mi NE 11.5 mph - 0.48 in Rain , Thunderstorm Thunderstorms and Rain
7:34 AM 57.2 °F 55.4 °F 94% 29.84 in 3.0 mi East 10.4 mph - N/A Rain , Thunderstorm Light Thunderstorms and Rain
7:51 AM 59.0 °F 55.4 °F 88% 29.80 in 3.0 mi NE 11.5 mph - N/A Rain Light Rain
7:56 AM 59.0 °F 55.9 °F 90% 29.75 in 3.0 mi NE 15.0 mph 23.0 mph N/A Rain , Thunderstorm Light Thunderstorms and Rain
8:32 AM 60.8 °F 57.2 °F 88% 29.81 in 6.0 mi ENE 13.8 mph - 0.07 in Rain Light Rain
8:56 AM 60.1 °F 57.0 °F 90% 29.77 in 4.0 mi East 13.8 mph - 0.14 in Rain Light Rain
9:43 AM 60.8 °F 57.2 °F 88% 29.82 in 5.0 mi East 10.4 mph - N/A Rain Light Rain
9:56 AM 61.0 °F 57.9 °F 90% 29.77 in 6.0 mi East 13.8 mph - N/A Rain Light Rain
10:08 AM 60.8 °F 57.2 °F 88% 29.82 in 6.0 mi ENE 9.2 mph 25.3 mph 0.00 in Rain , Thunderstorm Light Thunderstorms and Rain
10:26 AM 60.8 °F 57.2 °F 88% 29.81 in 6.0 mi East 16.1 mph 21.9 mph 0.00 in Rain Light Rain
10:36 AM 60.8 °F 57.2 °F 88% 29.79 in 10.0 mi ESE 16.1 mph 24.2 mph 0.00 in   Overcast
10:56 AM 63.0 °F 60.1 °F 90% 29.75 in 7.0 mi East 11.5 mph 19.6 mph 0.00 in Rain Light Rain
11:56 AM 63.0 °F 57.0 °F 81% 29.73 in 7.0 mi East 19.6 mph 24.2 mph 0.01 in Rain Light Rain
12:21 PM 64.4 °F 57.2 °F 77% 29.76 in 10.0 mi East 16.1 mph 21.9 mph 0.00 in   Mostly Cloudy
12:56 PM 64.0 °F 57.0 °F 78% 29.70 in 10.0 mi ESE 13.8 mph 23.0 mph 0.00 in   Mostly Cloudy
1:46 PM 64.4 °F 55.4 °F 73% 29.71 in 10.0 mi East 13.8 mph 21.9 mph 0.00 in Rain Light Rain
1:56 PM 64.9 °F 57.0 °F 75% 29.67 in 10.0 mi ESE 15.0 mph 23.0 mph 0.00 in   Mostly Cloudy
2:56 PM 66.9 °F 57.9 °F 73% 29.66 in 10.0 mi ESE 8.1 mph - N/A   Mostly Cloudy
3:56 PM 64.9 °F 57.0 °F 75% 29.66 in 10.0 mi ESE 12.7 mph 19.6 mph 0.00 in Rain Light Rain
4:36 PM 64.4 °F 57.2 °F 77% 29.69 in 10.0 mi ESE 8.1 mph - 0.00 in   Overcast
4:56 PM 63.0 °F 57.0 °F 81% 29.65 in 10.0 mi ESE 10.4 mph - 0.00 in   Overcast
5:17 PM 62.6 °F 57.2 °F 82% 29.67 in 1.0 mi ESE 13.8 mph - 0.02 in Rain Heavy Rain
5:40 PM 60.8 °F 57.2 °F 88% 29.65 in 10.0 mi ESE 12.7 mph - 0.03 in   Overcast
5:56 PM 61.0 °F 57.9 °F 90% 29.61 in 10.0 mi East 13.8 mph - 0.03 in   Overcast
6:09 PM 60.8 °F 57.2 °F 88% 29.63 in 9.0 mi East 12.7 mph - 0.00 in Rain Light Rain
6:56 PM 62.1 °F 59.0 °F 90% 29.58 in 10.0 mi ESE 11.5 mph 20.7 mph 0.01 in Rain Light Rain
7:36 PM 62.6 °F 59.0 °F 88% 29.62 in 5.0 mi ESE 12.7 mph - 0.02 in Rain , Thunderstorm Thunderstorms and Rain
7:56 PM 62.1 °F 59.0 °F 90% 29.58 in 10.0 mi ESE 11.5 mph - 0.06 in Rain , Thunderstorm Light Thunderstorms and Rain
8:16 PM 62.6 °F 60.8 °F 94% 29.62 in 8.0 mi ESE 9.2 mph - 0.01 in Rain Light Rain
8:56 PM 62.1 °F 60.1 °F 93% 29.58 in 5.0 mi SE 16.1 mph - 0.04 in Rain Light Rain
9:56 PM 64.0 °F 62.1 °F 93% 29.55 in 9.0 mi SE 18.4 mph 26.5 mph N/A Rain Light Rain
10:56 PM 64.9 °F 62.1 °F 90% 29.52 in 3.0 mi SSE 15.0 mph 25.3 mph N/A Rain Heavy Rain
10:59 PM 64.4 °F 62.6 °F 94% 29.57 in 2.5 mi SSE 15.0 mph 25.3 mph 0.01 in Rain Heavy Rain
11:06 PM 64.4 °F 62.6 °F 94% 29.57 in 4.0 mi SE 18.4 mph 26.5 mph 0.03 in Rain Rain
11:13 PM 64.4 °F 62.6 °F 94% 29.56 in 3.0 mi SSE 16.1 mph 26.5 mph 0.06 in Rain Rain
11:20 PM 64.4 °F 62.6 °F 94% 29.55 in 4.0 mi SSE 19.6 mph 26.5 mph 0.08 in Rain Rain
11:56 PM 66.0 °F 63.0 °F 90% 29.51 in 3.0 mi SSE 13.8 mph 24.2 mph 0.23 in Rain Rain